1491138000.3,48367,15.88,74078.3,14.91,-22.67,-22.77,0,*4F
1491138001.51,48368,15.88,74080.0,14.93,-22.83,-22.97,0,*46
1491138002.76,48369,15.88,74080.5,14.91,-22.67,-22.77,0,*41
1491138004.02,48370,15.88,74078.0,14.89,-23.03,-23.19,0,*4A
1491138005.28,48371,15.88,74076.3,14.87,-22.63,-22.77,0,*4B
1491138006.52,48372,15.88,74076.5,14.87,-22.57,-22.57,0,*4D
1491138007.8,48373,15.88,74076.0,14.87,-21.03,-21.03,0,*4C
1491138009.06,48374,15.88,74078.5,14.89,-20.83,-20.83,0,*45
1491138010.27,48375,15.88,74076.0,14.89,-21.77,-21.77,0,*44
1491138011.47,48376,15.88,74078.0,14.89,-21.73,-21.93,0,*49
1491138012.73,48377,15.88,74076.5,14.89,-21.53,-21.57,0,*42
1491138013.96,48378,15.88,74076.5,14.89,-21.53,-21.63,0,*4A
1491138015.23,48379,15.88,74076.3,14.89,-22.21,-22.47,0,*48
1491138016.45,48380,15.88,74080.5,14.89,-22.73,-22.87,0,*45
1491138017.74,48381,15.88,74074.5,14.87,-23.49,-23.49,0,*41
1491138018.99,48382,15.88,74074.0,14.87,-22.73,-22.63,0,*43
1491138020.22,48383,15.88,74072.3,14.87,-22.41,-22.37,0,*42
1491138021.44,48384,15.88,74078.5,14.85,-23.39,-23.29,0,*47
1491138022.64,48385,15.88,74072.8,14.85,-23.39,-23.43,0,*4A
1491138023.84,48386,15.88,74076.3,14.85,-22.03,-22.03,0,*44
1491138025.07,48387,15.88,74074.3,14.85,-21.73,-21.67,0,*40
1491138026.3,48388,15.88,74078.5,14.85,-21.63,-21.53,0,*49
1491138027.5,48389,15.88,74076.3,14.85,-20.93,-21.09,0,*49
1491138028.75,48390,15.88,74076.0,14.85,-21.03,-21.03,0,*43
1491138029.98,48391,15.88,74074.5,14.85,-21.03,-21.09,0,*48
1491138031.18,48392,15.88,74076.5,14.85,-21.17,-21.39,0,*4D
1491138032.39,48393,15.88,74074.5,14.85,-21.17,-21.17,0,*40
1491138033.68,48394,15.88,74078.0,14.87,-20.49,-20.49,0,*45
1491138034.91,48395,15.88,74078.3,14.89,-20.49,-20.43,0,*40
1491138036.16,48396,15.88,74074.5,14.89,-20.35,-20.35,0,*49
1491138037.38,48397,15.88,74076.5,14.89,-20.35,-20.29,0,*45
1491138038.64,48398,15.88,74074.8,14.91,-20.89,-20.79,0,*41
1491138039.89,48399,15.88,74074.0,14.91,-21.09,-21.03,0,*45
1491138041.11,48400,15.88,74076.0,14.91,-21.09,-21.09,0,*48
1491138042.39,48401,15.88,74076.3,14.91,-21.53,-21.57,0,*4D
1491138043.68,48402,15.88,74078.3,14.91,-21.87,-21.83,0,*4E
1491138044.97,48403,15.88,74078.5,14.91,-21.33,-21.23,0,*4A
1491138046.22,48404,15.88,74076.0,14.89,-21.53,-21.57,0,*41
1491138047.5,48405,15.88,74078.3,14.91,-21.03,-21.03,0,*4D
1491138048.73,48406,15.88,74076.0,14.91,-21.39,-21.47,0,*47
1491138049.96,48407,15.88,74076.3,14.91,-21.17,-21.17,0,*4F
1491138051.19,48408,15.88,74078.5,14.91,-21.09,-21.17,0,*4F
1491138052.45,48409,15.88,74076.0,14.93,-21.87,-21.87,0,*43
1491138053.68,48410,15.88,74076.0,14.91,-22.11,-22.03,0,*4A
1491138054.93,48411,15.88,74072.3,14.91,-20.73,-20.79,0,*42
1491138056.19,48412,15.88,74074.3,14.91,-20.89,-21.03,0,*48
1491138057.44,48413,15.88,74076.5,14.91,-21.57,-21.73,0,*4C
1491138058.71,48414,15.88,74076.0,14.93,-21.23,-21.23,0,*4F
1491138059.97,48415,15.88,74076.3,14.91,-22.77,-22.93,0,*46
1491138061.25,48416,15.88,74078.0,14.87,-23.49,-23.49,0,*48
1491138062.53,48417,15.88,74074.3,14.87,-23.23,-23.19,0,*40
1491138063.77,48418,15.88,74072.8,14.85,-22.17,-22.27,0,*47
1491138065.0,48419,15.88,74072.5,14.87,-21.47,-21.47,0,*47
1491138066.22,48420,15.88,74076.3,14.85,-21.83,-21.73,0,*40
1491138067.46,48421,15.88,74076.0,14.87,-20.73,-20.59,0,*44
1491138068.74,48422,15.88,74072.0,14.87,-20.99,-20.99,0,*4F
1491138070.0,48423,15.88,74072.3,14.85,-21.67,-21.67,0,*4C
1491138071.26,48424,15.88,74074.8,14.85,-21.87,-21.67,0,*45
1491138072.52,48425,15.88,74072.5,14.87,-21.67,-21.63,0,*4C
1491138073.78,48426,15.88,74072.3,14.87,-21.83,-21.77,0,*40
1491138075.04,48427,15.88,74074.0,14.87,-22.21,-22.11,0,*49
1491138076.3,48428,15.88,74074.3,14.85,-22.47,-22.47,0,*47
1491138077.54,48429,15.88,74074.0,14.83,-23.09,-22.97,0,*46
1491138078.77,48430,15.88,74072.5,14.83,-23.43,-23.43,0,*48
1491138080.03,48431,15.94,74078.0,14.83,-23.75,-23.69,0,*44
1491138081.3,48432,15.88,74074.0,14.79,-23.99,-23.99,0,*4F
1491138082.55,48433,15.88,74074.3,14.75,-23.69,-23.59,0,*41
1491138083.79,48434,15.88,74072.0,14.75,-23.69,-23.59,0,*46
1491138085.02,48435,15.88,74074.5,14.75,-22.93,-22.83,0,*45
1491138086.3,48436,15.88,74074.8,14.71,-22.47,-22.21,0,*43
1491138087.55,48437,15.94,74076.8,14.71,-22.31,-22.37,0,*44
1491138088.76,48438,15.88,74072.5,14.69,-22.03,-22.03,0,*44
1491138090.03,48439,15.88,74074.0,14.69,-22.47,-22.47,0,*45
1491138091.26,48440,15.88,74070.5,14.69,-21.39,-21.27,0,*44
1491138092.49,48441,15.88,74074.5,14.71,-21.43,-21.39,0,*4E
1491138093.72,48442,15.88,74074.3,14.69,-21.23,-21.13,0,*4A
1491138094.96,48443,15.88,74074.3,14.75,-20.43,-20.29,0,*49
1491138096.15,48444,15.88,74072.3,14.77,-20.09,-19.91,0,*4B
1491138097.43,48445,15.88,74072.5,14.75,-19.85,-19.65,0,*4D
1491138098.68,48446,15.88,74072.5,14.77,-20.49,-20.35,0,*49
1491138099.91,48447,15.88,74070.8,14.77,-21.57,-21.47,0,*42
1491138101.14,48448,15.88,74074.0,14.75,-21.39,-21.39,0,*4E
1491138102.41,48449,15.88,74072.8,14.75,-21.97,-21.97,0,*4F
1491138103.69,48450,15.88,74070.0,14.75,-21.97,-21.97,0,*47
1491138104.94,48451,15.88,74072.0,14.75,-21.17,-21.03,0,*43
1491138106.19,48452,15.88,74072.5,14.75,-21.09,-20.79,0,*43
1491138107.45,48453,15.88,74072.8,14.75,-20.53,-20.29,0,*49
1491138108.67,48454,15.88,74074.5,14.75,-21.47,-21.39,0,*4A
1491138109.93,48455,15.88,74072.0,14.75,-22.83,-22.77,0,*49
1491138111.16,48456,15.88,74074.0,14.71,-22.97,-22.83,0,*40
1491138112.39,48457,15.94,74074.8,14.69,-22.07,-22.17,0,*4C
1491138113.6,48458,15.88,74072.5,14.69,-22.03,-21.93,0,*48
1491138114.8,48459,15.88,74072.8,14.69,-21.43,-21.43,0,*43
1491138116.03,48460,15.88,74074.5,14.69,-21.09,-20.83,0,*4A
1491138117.25,48461,15.88,74074.5,14.71,-21.09,-21.09,0,*41
1491138118.46,48462,15.88,74076.0,14.69,-22.97,-22.97,0,*4B
1491138119.67,48463,15.88,74074.8,14.69,-22.83,-22.87,0,*4E
1491138120.88,48464,15.88,74074.3,14.65,-22.53,-22.53,0,*41
1491138122.11,48465,15.88,74074.8,14.65,-22.21,-22.07,0,*44
1491138123.31,48466,15.88,74076.3,14.65,-21.13,-21.17,0,*47
1491138124.54,48467,15.88,74076.3,14.65,-21.57,-21.47,0,*43
1491138125.79,48468,15.88,74076.5,14.65,-20.79,-20.53,0,*45
1491138126.99,48469,15.94,74078.8,14.65,-21.63,-21.63,0,*4C
1491138128.27,48470,15.88,74076.0,14.67,-21.33,-21.27,0,*43
1491138129.5,48471,15.88,74076.3,14.65,-21.13,-21.03,0,*44
1491138130.72,48472,15.88,74072.8,14.65,-21.47,-21.33,0,*45
1491138131.96,48473,15.88,74074.5,14.65,-21.03,-20.89,0,*44
1491138133.19,48474,15.94,74076.8,14.65,-20.53,-20.25,0,*41
1491138134.43,48475,15.94,74076.3,14.65,-20.83,-20.63,0,*4F
1491138135.63,48476,15.94,74078.5,14.65,-21.17,-21.13,0,*46
1491138136.84,48477,15.88,74076.3,14.65,-21.13,-20.89,0,*41
1491138138.08,48478,15.88,74076.5,14.67,-20.05,-19.85,0,*4C
1491138139.28,48479,15.94,74080.3,14.65,-20.09,-19.91,0,*46
1491138140.53,48480,15.94,74076.3,14.67,-20.25,-20.19,0,*46
1491138141.75,48481,15.94,74078.5,14.67,-20.25,-20.05,0,*4A
1491138143.01,48482,15.94,74080.0,14.67,-20.69,-20.49,0,*49
1491138144.26,48483,15.88,74072.8,14.67,-21.47,-21.33,0,*49
1491138145.49,48484,15.94,74078.3,14.65,-20.99,-20.63,0,*4A
1491138146.71,48485,15.88,74072.5,14.67,-20.05,-19.91,0,*4B
1491138147.91,48486,15.94,74076.3,14.69,-20.05,-19.91,0,*46
1491138149.15,48487,15.88,74072.0,14.69,-19.65,-19.51,0,*47
1491138150.4,48488,15.94,74076.5,14.71,-20.19,-19.99,0,*44
1491138151.64,48489,15.94,74076.8,14.71,-20.05,-19.81,0,*41
1491138152.9,48490,15.94,74076.5,14.69,-19.81,-19.57,0,*4D
1491138154.12,48491,15.94,74076.8,14.71,-22.03,-22.03,0,*4E
1491138155.33,48492,15.94,74076.0,14.69,-22.97,-22.83,0,*41
1491138156.59,48493,15.88,74074.5,14.69,-21.83,-21.57,0,*4C
1491138157.84,48494,15.94,74076.3,14.69,-21.57,-21.57,0,*42
1491138159.07,48495,15.88,74072.8,14.69,-22.03,-21.83,0,*48
1491138160.33,48496,15.88,74074.5,14.67,-21.87,-21.77,0,*41
1491138161.53,48497,15.94,74074.3,14.65,-21.93,-21.77,0,*47
1491138162.78,48498,15.88,74076.0,14.65,-23.49,-23.49,0,*42
1491138164.01,48499,15.94,74074.0,14.63,-22.87,-22.87,0,*45
1491138165.21,48500,15.88,74074.8,14.61,-22.83,-22.83,0,*46
1491138166.47,48501,15.94,74074.8,14.61,-24.87,-24.87,0,*47
1491138167.67,48502,15.94,74074.5,14.57,-24.77,-24.93,0,*4B
1491138168.89,48503,15.88,74074.5,14.53,-24.51,-24.51,0,*44
1491138170.13,48504,15.94,74076.5,14.47,-23.95,-23.99,0,*4A
1491138171.35,48505,15.94,74074.8,14.47,-23.39,-23.33,0,*4D
1491138172.63,48506,15.94,74074.3,14.45,-23.23,-23.23,0,*46
1491138173.91,48507,15.94,74076.3,14.45,-23.33,-23.53,0,*41
1491138175.12,48508,15.94,74076.0,14.43,-23.43,-23.43,0,*4E
1491138176.35,48509,15.94,74074.8,14.41,-22.53,-22.53,0,*4D
1491138177.56,48510,15.94,74078.3,14.39,-22.37,-22.37,0,*4A
1491138178.79,48511,15.94,74076.0,14.39,-22.53,-22.31,0,*4F
1491138180.06,48512,15.94,74078.3,14.39,-22.47,-22.47,0,*48
1491138181.31,48513,15.94,74076.3,14.37,-23.39,-23.33,0,*4D
1491138182.54,48514,15.94,74074.8,14.37,-23.39,-23.39,0,*40
1491138183.77,48515,15.94,74072.8,14.35,-23.53,-23.43,0,*42
1491138185.03,48516,15.94,74072.8,14.33,-23.59,-23.53,0,*4C
1491138186.25,48517,15.94,74072.0,14.33,-22.11,-22.07,0,*40
1491138187.47,48518,15.94,74072.3,14.31,-22.97,-22.97,0,*4A
1491138188.7,48519,15.94,74076.0,14.31,-22.93,-22.77,0,*41
1491138189.91,48520,15.94,74072.3,14.27,-22.87,-22.83,0,*42
1491138191.14,48521,15.94,74072.5,14.27,-22.73,-22.67,0,*42
1491138192.37,48522,15.94,74074.5,14.25,-22.67,-22.57,0,*45
1491138193.63,48523,15.94,74072.8,14.25,-23.49,-23.43,0,*4D
1491138194.88,48524,15.94,74072.0,14.25,-22.83,-22.73,0,*4F
1491138196.14,48525,15.94,74072.5,14.23,-22.77,-22.77,0,*47
1491138197.35,48526,15.94,74074.0,14.23,-23.75,-23.59,0,*4A
1491138198.61,48527,15.94,74074.0,14.21,-22.27,-22.17,0,*44
1491138199.82,48528,15.94,74076.8,14.23,-20.89,-20.69,0,*44
1491138201.05,48529,15.94,74074.8,14.23,-20.39,-20.35,0,*47
1491138202.28,48530,15.94,74076.8,14.21,-20.25,-20.09,0,*4F
1491138203.55,48531,15.94,74076.0,14.25,-20.63,-20.53,0,*47
1491138204.81,48532,15.94,74074.3,14.23,-21.67,-21.67,0,*41
1491138206.04,48533,15.94,74074.0,14.23,-21.17,-20.99,0,*47
1491138207.25,48534,15.94,74074.0,14.23,-22.53,-22.37,0,*45
1491138208.5,48535,15.94,74074.3,14.23,-21.67,-21.53,0,*41
1491138209.71,48536,15.94,74072.0,14.23,-22.37,-22.37,0,*45
1491138210.96,48537,15.94,74078.5,14.23,-21.83,-21.83,0,*44
1491138212.16,48538,15.94,74074.0,14.23,-22.11,-22.07,0,*4C
1491138213.45,48539,15.94,74076.8,14.21,-22.17,-21.97,0,*43
1491138214.69,48540,15.94,74074.8,14.23,-21.03,-20.89,0,*47
1491138215.95,48541,15.94,74074.8,14.21,-22.47,-22.57,0,*46
1491138217.18,48542,15.94,74072.3,14.23,-23.59,-23.53,0,*4C
1491138218.42,48543,15.94,74074.0,14.21,-22.93,-22.97,0,*41
1491138219.65,48544,15.94,74076.0,14.19,-23.43,-23.39,0,*44
1491138220.88,48545,15.94,74076.5,14.19,-23.09,-23.09,0,*48
1491138222.08,48546,15.94,74074.5,14.17,-22.37,-22.37,0,*45
1491138223.28,48547,15.94,74074.3,14.17,-22.03,-21.93,0,*4E
1491138224.48,48548,15.94,74072.5,14.17,-22.87,-22.83,0,*4F
1491138225.69,48549,15.94,74072.5,14.17,-24.57,-24.57,0,*4A
1491138226.93,48550,15.94,74068.5,14.15,-22.11,-21.97,0,*4D
1491138228.19,48551,15.94,74074.0,14.13,-21.33,-21.27,0,*42
1491138229.42,48552,15.94,74074.8,14.13,-22.77,-22.57,0,*46
1491138230.64,48553,15.94,74074.5,14.13,-22.41,-22.21,0,*43
1491138231.9,48554,15.94,74072.0,14.11,-22.77,-22.63,0,*45
1491138233.12,48555,15.94,74074.3,14.11,-22.83,-22.83,0,*41
1491138234.37,48556,15.94,74072.8,14.11,-22.41,-22.17,0,*41
1491138235.57,48557,15.94,74072.3,14.09,-22.83,-22.63,0,*44
1491138236.82,48558,15.94,74074.8,14.11,-22.83,-22.73,0,*43
1491138238.08,48559,15.94,74068.3,14.09,-21.53,-21.23,0,*43
1491138239.34,48560,15.94,74072.5,14.11,-22.27,-22.17,0,*44
1491138240.54,48561,15.94,74072.5,14.09,-23.13,-23.13,0,*4F
1491138241.79,48562,15.94,74074.3,14.09,-23.23,-23.23,0,*4C
1491138243.05,48563,15.94,74072.0,14.05,-23.33,-23.19,0,*49
1491138244.27,48564,15.94,74072.5,14.03,-22.53,-22.41,0,*43
1491138245.5,48565,15.94,74076.5,14.03,-22.53,-22.37,0,*43
1491138246.77,48566,15.94,74074.3,14.03,-21.03,-20.79,0,*4E
1491138248.05,48567,15.94,74072.0,14.03,-21.27,-21.27,0,*43
1491138249.3,48568,15.94,74078.3,14.03,-21.17,-21.03,0,*49
1491138250.53,48569,15.94,74076.0,14.09,-22.31,-22.27,0,*40
1491138251.78,48570,15.94,74078.0,14.03,-23.03,-22.83,0,*4C
1491138253.02,48571,15.94,74074.3,14.03,-21.97,-21.73,0,*4E
1491138254.25,48572,15.94,74076.5,14.05,-23.29,-23.13,0,*48
1491138255.49,48573,15.94,74076.3,14.01,-23.53,-23.43,0,*45
1491138256.71,48574,15.94,74078.8,13.99,-22.27,-22.03,0,*43
1491138257.95,48575,15.94,74078.0,14.01,-21.13,-20.83,0,*4A
1491138259.15,48576,15.94,74072.5,14.01,-20.73,-20.29,0,*4E
1491138260.35,48577,15.94,74072.5,14.05,-20.93,-20.73,0,*4A
1491138261.58,48578,15.94,74074.8,14.03,-20.89,-20.69,0,*43
1491138262.84,48579,15.94,74074.3,14.03,-21.47,-21.27,0,*4A
1491138264.07,48580,15.94,74074.3,14.03,-21.13,-20.89,0,*48
1491138265.29,48581,15.94,74072.8,14.05,-21.57,-21.43,0,*48
1491138266.52,48582,15.94,74078.8,14.05,-22.31,-22.07,0,*4B
1491138267.78,48583,15.94,74076.3,14.05,-21.87,-21.57,0,*42
1491138269.04,48584,15.94,74078.3,14.09,-21.53,-21.23,0,*43
1491138270.24,48585,15.94,74076.0,14.05,-21.43,-21.09,0,*47
1491138271.46,48586,15.94,74074.5,14.03,-21.77,-21.47,0,*4F
1491138272.68,48587,15.94,74076.0,14.03,-22.07,-21.63,0,*4C
1491138273.94,48588,15.94,74078.3,14.05,-21.87,-21.67,0,*4A
1491138275.14,48589,15.94,74076.0,14.05,-22.03,-21.73,0,*41
1491138276.39,48590,15.94,74076.3,14.05,-21.87,-21.57,0,*40
1491138277.62,48591,15.94,74078.3,14.05,-22.17,-21.77,0,*49
1491138278.85,48592,15.94,74078.8,14.05,-21.09,-20.83,0,*4C
1491138280.13,48593,15.94,74078.5,14.03,-20.83,-20.53,0,*45
1491138281.36,48594,15.94,74078.3,14.05,-22.21,-22.03,0,*49
1491138282.61,48595,15.94,74076.5,14.05,-21.87,-21.57,0,*45
1491138283.82,48596,15.94,74078.3,14.05,-20.93,-20.73,0,*45
1491138285.03,48597,15.94,74076.0,14.09,-20.89,-20.59,0,*4B
1491138286.26,48598,15.94,74076.3,14.09,-21.23,-20.93,0,*43
1491138287.46,48599,15.94,74078.3,14.09,-21.39,-21.09,0,*4B
1491138288.67,48600,15.94,74078.5,14.09,-20.59,-20.25,0,*40
1491138289.9,48601,15.94,74076.8,14.11,-20.43,-20.09,0,*4D
1491138291.14,48602,15.94,74080.8,14.11,-20.09,-19.61,0,*44
1491138292.35,48603,15.94,74078.0,14.13,-20.69,-20.39,0,*46
1491138293.6,48604,15.94,74078.3,14.13,-21.57,-21.27,0,*43
1491138294.86,48605,15.94,74076.0,14.13,-21.67,-21.27,0,*41
1491138296.09,48606,15.94,74076.0,14.13,-21.83,-21.63,0,*48
1491138297.34,48607,15.94,74076.8,14.13,-21.83,-21.33,0,*4C
1491138298.56,48608,15.94,74078.3,14.13,-20.99,-20.69,0,*47
1491138299.77,48609,15.94,74076.8,14.13,-20.69,-20.25,0,*41
1491138301.04,48610,15.94,74076.3,14.15,-21.83,-21.57,0,*4E
1491138302.26,48611,15.94,74078.3,14.13,-22.73,-22.41,0,*41
1491138303.46,48612,15.94,74076.8,14.13,-21.77,-21.43,0,*44
1491138304.68,48613,15.94,74076.8,14.11,-22.27,-22.03,0,*46
1491138305.88,48614,15.94,74074.8,14.13,-22.87,-22.57,0,*48
1491138307.13,48615,15.94,74078.5,14.11,-21.33,-20.93,0,*4D
1491138308.35,48616,15.94,74082.8,14.11,-22.03,-21.63,0,*40
1491138309.6,48617,15.94,74078.5,14.11,-21.83,-21.47,0,*4C
1491138310.83,48618,15.94,74080.8,14.09,-22.03,-21.87,0,*4D
1491138312.08,48619,15.94,74078.3,14.11,-21.47,-21.23,0,*48
1491138313.34,48620,15.94,74076.8,14.11,-21.67,-21.39,0,*4B
1491138314.59,48621,15.94,74076.8,14.11,-21.73,-21.33,0,*45
1491138315.81,48622,15.94,74076.0,14.11,-21.47,-21.17,0,*47
1491138317.04,48623,15.94,74078.0,14.09,-22.17,-21.73,0,*4B
1491138318.24,48624,15.94,74076.0,14.13,-22.37,-22.07,0,*45
1491138319.5,48625,15.94,74078.8,14.11,-21.53,-21.17,0,*45
1491138320.75,48626,15.94,74076.3,14.11,-21.47,-21.03,0,*46
1491138321.98,48627,15.94,74076.5,14.11,-21.17,-20.89,0,*41
1491138323.23,48628,15.94,74078.0,14.11,-22.73,-22.63,0,*49
1491138324.48,48629,15.94,74078.0,14.11,-23.79,-23.53,0,*41
1491138325.71,48630,15.94,74074.5,14.09,-22.03,-21.67,0,*49
1491138326.96,48631,15.94,74078.0,14.09,-21.87,-21.53,0,*40
1491138328.16,48632,15.94,74074.8,14.09,-21.39,-20.93,0,*4B
1491138329.42,48633,15.94,74074.8,14.09,-22.17,-21.87,0,*41
1491138330.68,48634,15.94,74072.8,14.05,-21.67,-20.99,0,*40
1491138331.93,48635,15.94,74074.5,14.09,-21.83,-21.53,0,*40
1491138333.19,48636,15.94,74074.3,14.11,-21.33,-20.89,0,*47
1491138334.42,48637,15.94,74074.3,14.05,-21.57,-21.13,0,*43
1491138335.62,48638,15.94,74072.0,14.05,-21.77,-21.39,0,*46
1491138336.89,48639,15.94,74072.8,14.05,-21.53,-21.27,0,*4E
1491138338.14,48640,15.94,74076.5,14.05,-21.27,-20.99,0,*47
1491138339.34,48641,15.94,74076.8,14.05,-22.03,-21.73,0,*46
1491138340.57,48642,15.94,74074.0,14.03,-21.93,-21.63,0,*48
1491138341.82,48643,15.94,74074.0,14.05,-21.87,-21.57,0,*4D
1491138343.02,48644,15.94,74076.8,14.05,-22.07,-21.93,0,*49
1491138344.25,48645,15.94,74076.3,14.05,-23.03,-22.83,0,*4F
1491138345.45,48646,15.94,74076.0,14.05,-21.43,-21.13,0,*40
1491138346.67,48647,15.94,74076.8,14.03,-21.43,-21.09,0,*4C
1491138347.9,48648,15.94,74076.0,14.05,-22.31,-22.03,0,*4A
1491138349.12,48649,15.94,74076.5,14.03,-22.57,-22.41,0,*4B
1491138350.34,48650,15.94,74078.0,14.03,-22.11,-21.77,0,*47
1491138351.59,48651,16.0,74080.0,14.03,-21.93,-21.57,0,*4D
1491138352.81,48652,15.94,74076.8,14.03,-21.63,-21.17,0,*45
1491138354.06,48653,15.94,74078.8,14.03,-21.97,-21.73,0,*4D
1491138355.29,48654,15.94,74080.0,14.03,-22.53,-22.11,0,*46
1491138356.54,48655,15.94,74076.3,14.01,-22.17,-21.83,0,*4D
1491138357.77,48656,15.94,74076.0,14.01,-22.63,-22.31,0,*47
1491138358.98,48657,16.0,74080.8,14.01,-22.93,-22.63,0,*4E
1491138360.26,48658,15.94,74080.5,13.99,-23.23,-22.77,0,*48
1491138361.52,48659,15.94,74078.3,13.99,-22.77,-22.57,0,*4B
1491138362.78,48660,15.94,74076.8,13.99,-22.31,-22.03,0,*42
1491138364.04,48661,15.94,74078.0,13.99,-22.93,-22.77,0,*48
1491138365.27,48662,15.94,74076.5,13.97,-22.63,-22.31,0,*48
1491138366.5,48663,15.94,74078.5,13.97,-22.47,-22.37,0,*49
1491138367.7,48664,15.94,74080.0,13.97,-22.93,-22.67,0,*42
1491138368.94,48665,15.94,74080.0,13.97,-22.47,-22.07,0,*4C
1491138370.19,48666,15.94,74078.0,13.95,-23.33,-23.13,0,*4B
1491138371.44,48667,15.94,74078.8,13.95,-23.99,-23.89,0,*49
1491138372.69,48668,15.94,74076.3,13.91,-23.75,-23.43,0,*46
1491138373.95,48669,15.94,74082.5,13.91,-23.59,-23.23,0,*4F
1491138375.15,48670,15.94,74078.3,13.89,-24.57,-24.35,0,*47
1491138376.37,48671,15.94,74076.0,13.89,-23.75,-23.43,0,*47
1491138377.6,48672,15.94,74076.3,13.87,-23.29,-23.09,0,*4D
1491138378.84,48673,15.94,74080.0,13.87,-22.67,-22.47,0,*4C
1491138380.09,48674,15.94,74078.3,13.85,-22.73,-22.57,0,*4D
1491138381.35,48675,15.94,74076.8,13.85,-22.11,-21.87,0,*46
1491138382.58,48676,15.94,74078.5,13.85,-22.53,-22.11,0,*4F
1491138383.8,48677,15.94,74080.8,13.85,-22.07,-21.73,0,*48
1491138385.03,48678,15.94,74076.3,13.85,-22.87,-22.57,0,*4A
1491138386.3,48679,15.94,74076.3,13.81,-23.43,-23.19,0,*4D
1491138387.55,48680,15.94,74072.0,13.81,-23.23,-22.93,0,*4E
1491138388.81,48681,15.94,74078.3,13.81,-23.59,-23.29,0,*42
1491138390.08,48682,15.94,74076.8,13.81,-23.23,-23.03,0,*44
1491138391.34,48683,15.94,74076.8,13.81,-23.23,-22.93,0,*4D
1491138392.57,48684,15.94,74078.8,13.79,-22.47,-22.11,0,*44
1491138393.81,48685,15.94,74078.8,13.79,-22.17,-21.77,0,*43
1491138395.1,48686,15.94,74078.0,13.77,-22.47,-21.97,0,*45
1491138396.34,48687,16.0,74080.5,13.79,-23.43,-23.23,0,*42
1491138397.62,48688,15.94,74076.5,13.77,-24.41,-24.11,0,*40
1491138398.88,48689,15.94,74078.3,13.77,-23.23,-23.09,0,*4C
1491138400.14,48690,15.94,74076.0,13.77,-23.09,-22.77,0,*44
1491138401.35,48691,15.94,74076.3,13.75,-22.83,-22.63,0,*41
1491138402.56,48692,15.94,74078.8,13.75,-23.09,-22.83,0,*4F
1491138403.77,48693,15.94,74074.3,13.75,-22.97,-22.67,0,*42
1491138404.99,48694,15.94,74078.5,13.75,-22.97,-22.67,0,*45
1491138406.22,48695,16.0,74078.3,13.75,-23.23,-22.97,0,*45
1491138407.5,48696,15.94,74078.3,13.73,-23.49,-23.29,0,*48
1491138408.77,48697,16.0,74078.5,13.73,-23.03,-22.87,0,*42
1491138410.02,48698,15.94,74076.8,13.73,-22.41,-22.21,0,*46
1491138411.28,48699,15.94,74076.3,13.73,-23.65,-23.39,0,*48
1491138412.51,48700,15.94,74076.5,13.71,-23.39,-23.19,0,*40
1491138413.71,48701,15.94,74074.8,13.71,-22.87,-22.57,0,*4E
1491138414.93,48702,16.0,74076.8,13.71,-23.39,-23.19,0,*42
1491138416.18,48703,16.0,74076.0,13.71,-24.15,-23.85,0,*4F
1491138417.44,48704,16.0,74076.5,13.69,-23.85,-23.75,0,*40
1491138418.7,48705,15.94,74072.8,13.65,-24.31,-24.11,0,*40
1491138419.96,48706,16.0,74076.3,13.65,-24.61,-24.41,0,*43
1491138421.22,48707,15.94,74074.3,13.65,-23.43,-23.19,0,*4F
1491138422.51,48708,15.94,74074.3,13.65,-23.65,-23.49,0,*41
1491138423.74,48709,16.0,74072.5,13.59,-22.57,-22.21,0,*40
1491138424.95,48710,15.94,74068.5,13.63,-21.63,-21.39,0,*4F
1491138426.18,48711,15.94,74070.5,13.63,-22.53,-22.31,0,*45
1491138427.39,48712,16.0,74070.8,13.63,-22.97,-22.83,0,*47
1491138428.63,48713,15.94,74070.3,13.63,-22.21,-21.77,0,*43
1491138429.83,48714,16.0,74070.0,13.63,-21.63,-21.43,0,*46
1491138431.06,48715,16.0,74074.5,13.63,-21.39,-20.99,0,*4E
1491138432.31,48716,15.94,74068.3,13.65,-20.69,-20.35,0,*49
1491138433.54,48717,16.0,74074.3,13.67,-21.33,-21.09,0,*4A
1491138434.81,48718,16.0,74072.3,13.69,-21.47,-21.27,0,*44
1491138436.04,48719,16.0,74072.3,13.69,-21.47,-21.17,0,*46
1491138437.3,48720,16.0,74074.3,13.69,-21.63,-21.27,0,*49
1491138438.54,48721,16.0,74074.3,13.69,-21.77,-21.47,0,*4B
1491138439.79,48722,16.0,74074.0,13.69,-21.83,-21.47,0,*43
1491138441.08,48723,15.94,74070.8,13.69,-21.27,-20.99,0,*4E
1491138442.28,48724,16.0,74072.5,13.71,-21.39,-21.13,0,*4C
1491138443.51,48725,15.94,74074.5,13.71,-22.47,-22.27,0,*43
1491138444.71,48726,16.0,74076.0,13.71,-22.63,-22.57,0,*41
1491138445.97,48727,16.0,74074.8,13.69,-22.11,-21.83,0,*46
1491138447.2,48728,16.0,74074.8,13.71,-21.27,-21.13,0,*4F
1491138448.48,48729,16.0,74074.5,13.69,-21.33,-20.99,0,*41
1491138449.71,48730,16.0,74074.8,13.69,-21.39,-21.17,0,*44
1491138450.97,48731,16.0,74074.3,13.71,-21.27,-21.03,0,*46
1491138452.22,48732,16.0,74076.0,13.71,-21.83,-21.53,0,*4E
1491138453.46,48733,16.0,74072.3,13.71,-22.47,-22.27,0,*44
1491138454.72,48734,15.94,74074.3,13.69,-22.57,-22.31,0,*4C
1491138455.92,48735,16.0,74074.5,13.71,-22.11,-21.93,0,*4D
1491138457.16,48736,16.0,74072.0,13.71,-23.19,-23.09,0,*46
1491138458.39,48737,16.0,74072.3,13.69,-23.89,-23.75,0,*4C
1491138459.65,48738,16.0,74076.3,13.69,-23.59,-23.53,0,*4A
1491138460.9,48739,16.0,74074.8,13.65,-23.03,-22.87,0,*40
1491138462.14,48740,16.0,74074.5,13.67,-22.63,-22.31,0,*46
1491138463.42,48741,16.0,74074.0,13.65,-23.29,-23.19,0,*41
1491138464.68,48742,16.0,74076.5,13.65,-21.87,-21.63,0,*4B
1491138465.96,48743,16.0,74076.0,13.65,-22.31,-22.21,0,*41
1491138467.19,48744,16.0,74074.8,13.65,-22.03,-21.77,0,*47
1491138468.45,48745,16.0,74074.0,13.67,-21.97,-21.57,0,*48
1491138469.7,48746,16.0,74074.3,13.65,-20.69,-20.35,0,*4C
1491138470.92,48747,16.0,74074.8,13.67,-20.43,-20.25,0,*46
1491138472.18,48748,16.0,74078.8,13.65,-21.27,-21.09,0,*47
1491138473.43,48749,16.0,74072.5,13.69,-20.73,-20.53,0,*44
1491138474.64,48750,16.0,74074.5,13.71,-21.39,-21.17,0,*4B
1491138475.87,48751,16.0,74074.0,13.69,-22.07,-21.93,0,*41
1491138477.15,48752,16.0,74076.0,13.69,-21.97,-21.67,0,*43
1491138478.38,48753,16.0,74076.0,13.71,-21.03,-20.73,0,*42
1491138479.61,48754,16.0,74076.8,13.71,-20.83,-20.69,0,*47
1491138480.82,48755,16.0,74074.8,13.71,-21.13,-20.89,0,*40
1491138482.11,48756,16.0,74074.0,13.73,-20.79,-20.53,0,*4B
1491138483.37,48757,16.0,74072.5,13.73,-21.87,-21.73,0,*49
1491138484.61,48758,16.0,74072.5,13.73,-22.83,-22.83,0,*4D
1491138485.85,48759,16.0,74078.5,13.71,-22.73,-22.73,0,*4E
1491138487.11,48760,16.0,74076.5,13.71,-23.19,-23.23,0,*4D
1491138488.32,48761,16.0,74074.8,13.71,-21.93,-21.77,0,*4F
1491138489.6,48762,16.0,74074.8,13.69,-22.31,-22.21,0,*4E
1491138490.86,48763,16.0,74074.0,13.69,-22.77,-22.63,0,*4B
1491138492.12,48764,16.0,74072.3,13.69,-22.93,-23.03,0,*41
1491138493.34,48765,16.0,74076.3,13.67,-22.53,-22.27,0,*45
1491138494.57,48766,15.94,74070.8,13.65,-22.07,-22.03,0,*43
1491138495.8,48767,16.0,74072.8,13.65,-22.57,-22.41,0,*41